sat.trackr.live / text

‹ back to catalog

STARLINK-4252

NORAD 53057 · 2022-077Q

PAYLOAD ACTIVE UNKNOWN

§ Identity

Operator
Country
US
Launch date
2022-07-11
Launch site
AFWTR
Launch vehicle
Mass (kg)
RCS (m²)

Purposes: comms

External: N2YO · Heavens-Above · Gunter

§ Orbital elements

Epoch: 2026-05-24T23:21:36.029088Z

Period
95.64 min
Inclination
97.4500°
Eccentricity
0.0001521
Mean motion
15.05654299 rev/d
Perigee alt
548.4 km
Apogee alt
550.6 km
Semi-major
6,927.6 km
B*
1.9746e-5
RAAN
326.1101°
Arg perigee
148.7875°
Mean anomaly
211.3443°
Rev number
21,246

§ Raw data

STARLINK-42521 53057U 22077Q   26144.97333367  .00000226  00000+0  19746-4 0  99962 53057  97.4500 326.1101 0001521 148.7875 211.3443 15.05654299212469

JSON: /api/v1/satellites/53057 · /tle

For live sub-satellite position, see the globe view (requires WebGL).

§ Visibility from observer

Set your observer location to see the next 7 days of passes ≥ 10°. The values pass through the URL so the page stays shareable.

No JS? Fill the form by hand. The geolocation button needs JavaScript.